When you browse on this site, cookies collect data to enhance your experience and personalize the content and advertising you see.
Visit our Privacy Policy to learn more. By continuing to use the site, you agree to this use of cookies and data.
  • în România
  • Lista ţărilor
  • Pe 7 zile
  • Temperatura apei
  • Hartă satelitară
  • Meteo pe hartă
  • Widget-uri
  • user-avatar
    Intrare

    Meteo pe oră la Vyalimyaki

    Astăzi, 22 Iulie, Luni

    Timp Temperatura Precipitaţii Vânt Presiune Umiditate
    00:00 +14°C° 0 mm 1 m/s 755 mmHg 71%
    01:00 +14°C° 0 mm 1 m/s 755 mmHg 72%
    02:00 +14°C° 0 mm 1 m/s 755 mmHg 75%
    03:00 +15°C° 0 mm 1 m/s 755 mmHg 74%
    04:00 +15°C° 0 mm 1 m/s 755 mmHg 74%
    05:00 +16°C° 0 mm 1 m/s 755 mmHg 73%
    06:00 +19°C° 0 mm 1 m/s 755 mmHg 66%
    07:00 +21°C° 0 mm 1 m/s 755 mmHg 59%
    08:00 +24°C° 0 mm 1 m/s 755 mmHg 52%
    09:00 +25°C° 0 mm 1 m/s 755 mmHg 48%
    10:00 +25°C° 0 mm 1 m/s 755 mmHg 45%
    11:00 +26°C° 0 mm 1 m/s 755 mmHg 41%
    12:00 +26°C° 0 mm 1 m/s 754 mmHg 43%
    13:00 +25°C° 0 mm 2 m/s 754 mmHg 46%
    14:00 +25°C° 0 mm 2 m/s 754 mmHg 48%
    15:00 +24°C° 0 mm 1 m/s 754 mmHg 48%
    16:00 +24°C° 0 mm 1 m/s 754 mmHg 49%
    17:00 +24°C° 0 mm 1 m/s 754 mmHg 49%
    18:00 +22°C° 0 mm 1 m/s 754 mmHg 54%
    19:00 +21°C° 0 mm 1 m/s 753 mmHg 59%
    20:00 +20°C° 0 mm 1 m/s 753 mmHg 64%
    21:00 +19°C° 0 mm 1 m/s 753 mmHg 65%
    22:00 +18°C° 0 mm 1 m/s 753 mmHg 66%
    23:00 +16°C° 0 mm 1 m/s 753 mmHg 67%

    Mâine, 23 Iulie, Marţi

    Timp Temperatura Precipitaţii Vânt Presiune Umiditate
    00:00 +15°C° 0 mm 1 m/s 753 mmHg 68%
    01:00 +15°C° 0 mm 1 m/s 753 mmHg 70%
    02:00 +14°C° 0 mm 0 m/s 753 mmHg 71%
    03:00 +15°C° 0 mm 1 m/s 753 mmHg 72%
    04:00 +15°C° 0 mm 1 m/s 753 mmHg 72%
    05:00 +16°C° 0 mm 1 m/s 753 mmHg 73%
    06:00 +18°C° 0 mm 1 m/s 753 mmHg 66%
    07:00 +20°C° 0 mm 1 m/s 753 mmHg 60%
    08:00 +22°C° 0 mm 1 m/s 753 mmHg 53%
    09:00 +23°C° 0 mm 2 m/s 753 mmHg 49%
    10:00 +24°C° 0 mm 2 m/s 753 mmHg 45%
    11:00 +25°C° 0 mm 2 m/s 753 mmHg 41%
    12:00 +25°C° 0 mm 2 m/s 753 mmHg 38%
    13:00 +26°C° 0 mm 3 m/s 753 mmHg 35%
    14:00 +26°C° 0 mm 3 m/s 753 mmHg 33%
    15:00 +26°C° 0 mm 3 m/s 753 mmHg 34%
    16:00 +25°C° 0 mm 2 m/s 753 mmHg 35%
    17:00 +25°C° 0 mm 2 m/s 753 mmHg 36%
    18:00 +23°C° 0 mm 2 m/s 753 mmHg 42%
    19:00 +21°C° 0 mm 1 m/s 753 mmHg 49%
    20:00 +20°C° 0 mm 1 m/s 753 mmHg 56%
    21:00 +19°C° 0 mm 1 m/s 753 mmHg 56%
    22:00 +18°C° 0 mm 1 m/s 753 mmHg 56%
    23:00 +15°C° 0 mm 0 m/s 753 mmHg 56%

    Poimâine, 24 Iulie, Miercuri

    Timp Temperatura Precipitaţii Vânt Presiune Umiditate
    00:00 +15°C° 0.1 mm 0 m/s 753 mmHg 59%
    01:00 +14°C° 0.1 mm 0 m/s 753 mmHg 62%
    02:00 +14°C° 0.1 mm 0 m/s 753 mmHg 65%
    03:00 +15°C° 0 mm 1 m/s 753 mmHg 67%
    04:00 +15°C° 0 mm 1 m/s 753 mmHg 69%
    05:00 +16°C° 0 mm 1 m/s 753 mmHg 70%
    06:00 +18°C° 0 mm 1 m/s 753 mmHg 66%
    07:00 +20°C° 0 mm 1 m/s 753 mmHg 62%
    08:00 +21°C° 0 mm 1 m/s 753 mmHg 58%
    09:00 +21°C° 0 mm 1 m/s 753 mmHg 57%
    10:00 +21°C° 0 mm 2 m/s 753 mmHg 56%
    11:00 +21°C° 0 mm 2 m/s 753 mmHg 55%
    12:00 +21°C° 0 mm 2 m/s 753 mmHg 57%
    13:00 +21°C° 0 mm 2 m/s 754 mmHg 58%
    14:00 +20°C° 0 mm 2 m/s 754 mmHg 59%
    15:00 +20°C° 0 mm 2 m/s 754 mmHg 61%
    16:00 +20°C° 0 mm 2 m/s 754 mmHg 63%
    17:00 +19°C° 0 mm 2 m/s 754 mmHg 64%
    18:00 +19°C° 0 mm 1 m/s 754 mmHg 68%
    19:00 +19°C° 0 mm 1 m/s 754 mmHg 72%
    20:00 +18°C° 0 mm 1 m/s 754 mmHg 76%
    21:00 +16°C° 0 mm 1 m/s 754 mmHg 79%
    22:00 +15°C° 0 mm 1 m/s 754 mmHg 81%
    23:00 +15°C° 0 mm 1 m/s 755 mmHg 84%

    25 Iulie, Joi

    Timp Temperatura Precipitaţii Vânt Presiune Umiditate
    00:00 +14°C° 0 mm 1 m/s 755 mmHg 85%
    01:00 +14°C° 0 mm 1 m/s 755 mmHg 87%
    02:00 +13°C° 0 mm 1 m/s 755 mmHg 89%
    03:00 +14°C° 0 mm 1 m/s 755 mmHg 87%
    04:00 +14°C° 0 mm 1 m/s 755 mmHg 85%
    05:00 +15°C° 0 mm 1 m/s 755 mmHg 83%
    06:00 +18°C° 0 mm 1 m/s 755 mmHg 75%
    07:00 +20°C° 0 mm 1 m/s 756 mmHg 68%
    08:00 +22°C° 0 mm 1 m/s 756 mmHg 60%
    09:00 +24°C° 0 mm 1 m/s 756 mmHg 54%
    10:00 +26°C° 0 mm 1 m/s 756 mmHg 48%
    11:00 +28°C° 0 mm 1 m/s 756 mmHg 42%
    12:00 +29°C° 0 mm 1 m/s 756 mmHg 42%
    13:00 +29°C° 0 mm 2 m/s 756 mmHg 41%
    14:00 +29°C° 0 mm 2 m/s 756 mmHg 40%
    15:00 +28°C° 0 mm 1 m/s 756 mmHg 44%
    16:00 +27°C° 0 mm 1 m/s 756 mmHg 48%
    17:00 +27°C° 0 mm 1 m/s 756 mmHg 52%
    18:00 +25°C° 0 mm 1 m/s 756 mmHg 58%
    19:00 +24°C° 0 mm 1 m/s 756 mmHg 65%
    20:00 +22°C° 0 mm 1 m/s 756 mmHg 71%
    21:00 +21°C° 0 mm 1 m/s 757 mmHg 73%
    22:00 +20°C° 0 mm 1 m/s 757 mmHg 76%
    23:00 +19°C° 0 mm 1 m/s 757 mmHg 78%

    26 Iulie, Vineri

    Timp Temperatura Precipitaţii Vânt Presiune Umiditate
    00:00 +19°C° 0 mm 1 m/s 757 mmHg 79%
    01:00 +19°C° 0 mm 1 m/s 757 mmHg 79%
    02:00 +18°C° 0 mm 1 m/s 757 mmHg 79%
    03:00 +19°C° 0 mm 1 m/s 758 mmHg 79%
    04:00 +19°C° 0 mm 1 m/s 758 mmHg 78%
    05:00 +19°C° 0 mm 1 m/s 758 mmHg 77%
    06:00 +21°C° 0 mm 1 m/s 758 mmHg 71%
    07:00 +23°C° 0 mm 1 m/s 758 mmHg 65%
    08:00 +24°C° 0 mm 1 m/s 758 mmHg 58%
    09:00 +26°C° 0 mm 1 m/s 758 mmHg 55%
    10:00 +27°C° 0 mm 1 m/s 758 mmHg 51%
    11:00 +28°C° 0 mm 1 m/s 758 mmHg 47%
    12:00 +28°C° 0 mm 1 m/s 758 mmHg 45%
    13:00 +29°C° 0 mm 1 m/s 758 mmHg 43%
    14:00 +29°C° 0 mm 1 m/s 757 mmHg 41%
    15:00 +29°C° 0 mm 1 m/s 757 mmHg 42%
    16:00 +29°C° 0 mm 1 m/s 757 mmHg 43%
    17:00 +29°C° 0 mm 1 m/s 757 mmHg 43%
    18:00 +27°C° 0 mm 1 m/s 757 mmHg 51%
    19:00 +25°C° 0 mm 1 m/s 757 mmHg 58%
    20:00 +23°C° 0 mm 1 m/s 756 mmHg 65%
    21:00 +22°C° 0 mm 1 m/s 756 mmHg 67%
    22:00 +21°C° 0 mm 1 m/s 756 mmHg 69%
    23:00 +19°C° 0 mm 2 m/s 756 mmHg 71%

    27 Iulie, Sâmbătă

    Timp Temperatura Precipitaţii Vânt Presiune Umiditate
    00:00 +19°C° 0 mm 2 m/s 756 mmHg 71%
    01:00 +19°C° 0 mm 2 m/s 756 mmHg 71%
    02:00 +18°C° 0 mm 2 m/s 756 mmHg 71%
    03:00 +19°C° 0 mm 2 m/s 756 mmHg 71%
    04:00 +19°C° 0 mm 2 m/s 756 mmHg 72%
    05:00 +19°C° 0 mm 2 m/s 755 mmHg 72%
    06:00 +21°C° 0 mm 2 m/s 755 mmHg 66%
    07:00 +24°C° 0 mm 2 m/s 755 mmHg 59%
    08:00 +26°C° 0 mm 2 m/s 755 mmHg 52%
    09:00 +28°C° 0 mm 3 m/s 755 mmHg 48%
    10:00 +29°C° 0 mm 3 m/s 755 mmHg 43%
    11:00 +31°C° 0 mm 3 m/s 754 mmHg 39%
    12:00 +31°C° 0 mm 3 m/s 754 mmHg 38%
    13:00 +32°C° 0 mm 4 m/s 754 mmHg 38%
    14:00 +33°C° 0 mm 4 m/s 754 mmHg 38%
    15:00 +32°C° 0 mm 4 m/s 754 mmHg 40%
    16:00 +30°C° 0 mm 4 m/s 754 mmHg 42%
    17:00 +29°C° 0 mm 4 m/s 754 mmHg 45%
    18:00 +27°C° 0 mm 4 m/s 754 mmHg 54%
    19:00 +23°C° 0 mm 4 m/s 755 mmHg 62%
    20:00 +21°C° 0 mm 4 m/s 755 mmHg 71%
    21:00 +19°C° 0 mm 4 m/s 756 mmHg 71%
    22:00 +18°C° 0 mm 4 m/s 756 mmHg 71%
    23:00 +15°C° 0 mm 4 m/s 757 mmHg 70%
    Arată mai mult